This is the latest recevied weather packets stored in our database for station/object M0XZS-2. If no packets are shown the sender has not sent any weather packets the latest 10 day(s).
| Time | Temp. | Humidity | Pressure | Rain* | Wind** | Luminosity | Snow |
|---|---|---|---|---|---|---|---|
| 1777665156 | 24.44° C | 30% | 1019.4 hPa | - | - | - | - |
| 1777664256 | 25° C | 29% | 1019.4 hPa | - | - | - | - |
| 1777663356 | 25.56° C | 29% | 1019.3 hPa | - | - | - | - |
| 1777662456 | 26.67° C | 29% | 1019.3 hPa | - | - | - | - |
| 1777661556 | 27.22° C | 29% | 1019.3 hPa | - | - | - | - |
| 1777660656 | 27.78° C | 28% | 1019.2 hPa | - | - | - | - |
| 1777659756 | 27.22° C | 29% | 1019.3 hPa | - | - | - | - |
| 1777658856 | 27.22° C | 29% | 1019.6 hPa | - | - | - | - |
| 1777657955 | 27.78° C | 28% | 1019.6 hPa | - | - | - | - |
| 1777657055 | 27.78° C | 28% | 1019.6 hPa | - | - | - | - |
| 1777656155 | 28.33° C | 27% | 1019.8 hPa | - | - | - | - |
| 1777655255 | 28.89° C | 26% | 1019.7 hPa | - | - | - | - |
| 1777654355 | 29.44° C | 27% | 1019.8 hPa | - | - | - | - |
| 1777653455 | 30° C | 25% | 1019.8 hPa | - | - | - | - |
| 1777652555 | 30° C | 25% | 1019.8 hPa | - | - | - | - |
| 1777651655 | 30.56° C | 24% | 1019.9 hPa | - | - | - | - |
| 1777650755 | 31.11° C | 24% | 1020 hPa | - | - | - | - |
| 1777649855 | 31.67° C | 24% | 1020.2 hPa | - | - | - | - |
| 1777648954 | 31.67° C | 24% | 1020.3 hPa | - | - | - | - |
| 1777648054 | 31.67° C | 24% | 1020.4 hPa | - | - | - | - |
| 1777647154 | 31.67° C | 24% | 1020.5 hPa | - | - | - | - |
| 1777646256 | 31.67° C | 23% | 1020.8 hPa | - | - | - | - |
| 1777645355 | 31.67° C | 23% | 1020.9 hPa | - | - | - | - |
| 1777644455 | 32.22° C | 23% | 1020.9 hPa | - | - | - | - |
| 1777643555 | 32.22° C | 24% | 1021.1 hPa | - | - | - | - |
* Rain since midnight (hover to see other rain measurements)
** Current wind speed in m/s (hover to see current wind gust speed)